SL-12 DEB, 41681

Orbit data source: Space-Track

SL-12 DEB, 41681 is space debris in HEO originally from a launch on Fri, 26 Oct 2007 UTC launched from the Tyuratam Missile And Space Complex (TTMTR). Debris objects in space refer to the collection of defunct objects orbiting the Earth. Examples of debris include non-operational satellites, rocket bodies, and fragments generated from explosions, collisions, or faulty payload assembly.

Loading next visibility...
Identifier
41681, 2007-052N
Orbit
HEO
Country
Flag of CISCIS
Related business
Manufacturer
RKKE
Mission
Spacecraft
Bus & Motor
Unknown
Mass
Unknown
Launch date (UTC)
2007-10-26 (19 years ago)
Launch vehicle
Unknown
Launch site
Tyuratam Missile And Space Complex (TTMTR)
Object type
Payload
Rocket body
Debris
Shape & HBR
Unknown shape, 0.2 m
Radar Cross Section
Medium (>0.1 m² and <1 m²)

Expand to show TLE details & history
Last TLE update: 2 days ago

TLE from 2 days ago
0 SL-12 DEB
1 41681U 07052N   26171.03887534  .00001643  00000-0  67819-3 0  9997
2 41681  64.9707 179.6790 5733945 197.8321 128.4661  4.39832327189075
Epoch: 2026-06-20T00:55Z
TLE epoch observation values (Epoch: 2026-06-20T00:55:58.829Z)
Latitude
-0.00002°
Longitude
-102.58302°
Altitude
16,887.097 km
Speed
2.99 km/s
True Right ascension
11h 58m 41s
True Declination
0° 00' 00"
Sunlit
Object was in daylight at epoch
Visualization orbit readout
Latitude
Unknown
Longitude
Unknown
Altitude
Unknown
Speed
Unknown
Apparent Right ascension
Unknown
Apparent Declination
Unknown
Sunlit
N/A
Visualization observer readout
Local Sidereal Time
21:52:28
Azimuth
Unknown
Elevation
Unknown
Doppler factor
Unknown
Orbital elements
Apogee altitude
18,377.976 km
Perigee altitude
334.162 km
Semi-major axis
15,734.206 km
Eccentricity
0.57339
Inclination
64.9707°
RAAN
179.679°
Arg. of periapsis
197.8321°
True anomaly
162.22372°
Mean anomaly
128.4661°
Eccentric anomaly
146.56692°
Mean motion
1.0997 °/min
Orbital period
327.36 mins
BSTAR
0.00067819
Loading maneuver chart data...
Computing Atmospheric mass density...
Loading historical data...
Loading historical data...
Loading historical data...
Loading historical data...
Loading historical data...
Loading historical data...
Loading historical data...

Documentation

Showing up to 5 results
|